Showing default

TOMORROW-R2, 56962

Orbit data source: Space-Track

TOMORROW-R2, 56962 is a payload satellite in SSO that was launched on Mon, 12 Jun 2023 UTC via an FALCON 9 launch vehicle from the Air Force Western Test Range (AFWTR). Payload-class satellites include a variety of spacecraft equipped with specific instruments for various scientific and technological missions. These include communications satellites like Starlink; space stations such as the ISS; scientific satellites like the Hubble; Earth observation satellites from companies like Planet Labs, Umbra, and HawkEye 360; GPS; miniature CubeSats for education and research; and military/defense satellites.

Loading next visibility...
Identifier
56962, 2023-084AG
Orbit
SSO
Last TLE update
15 hours ago
Origin
Manufacturer
Astro Digital
Mission
Operational Commercial Radar Imaging
Bus & Motor
CORVUS-XL, Unknown motor
Mass
85 kg wet, 85 kg dry
Launch date (UTC)
2023-06-12 (2 years ago)
Launch vehicle
FALCON 9
Launch site
Air Force Western Test Range (AFWTR)
Object type
Payload
Rocket body
Debris
Shape & HBR
Box + 1 Dish, 2 m
Radar Cross Section
0.425 m², Medium (>0.1 m² and < 1m²)

Expand to show TLE details & history

TLE from 15 hours ago
0 TOMORROW-R2
1 56962U 23084AG  25138.90255748  .00025839  00000-0  59335-3 0  9999
2 56962  97.5694 270.3664 0006737 250.5147 109.5372 15.42663329107539
Epoch: 2025-05-18T21:39Z
TLE epoch observation values (Epoch: 2025-05-18T21:39:40.966Z)
Latitude
-0.00005°
Longitude
68.62285°
Altitude
442.908 km
Speed
7.645 km/s
True Right ascension
18h 01m 27s
True Declination
0° 00' 00"
Sunlit
Object was in full shadow at epoch
Visualization orbit readout
Latitude
0.24828°
Longitude
-110.70454°
Altitude
439.57 km
Speed
7.649 km/s
Apparent Right ascension
07h 23m 29s
Apparent Declination
-20° 38' 11"
Sunlit
Object is in daylight
Visualization observer readout
Local Sidereal Time
21:16:11
Azimuth
59.621° ENE
Elevation
-59.19°
Doppler factor
1
Orbital elements
Apogee altitude
439.786 km
Perigee altitude
430.605 km
Semi-major axis
6,813.332 km
Eccentricity
0.00067
Inclination
97.5694°
RAAN
270.3664°
Arg. of periapsis
250.5147°
True anomaly
Unknown
Mean anomaly
109.5372°
Eccentric anomaly
Unknown
Mean motion
3.85926 °/min
Orbital period
93.28 mins
BSTAR
0.00059335
Loading maneuver chart data...
Loading SW <> Apogee altitude chart data...
Loading historical data...
Loading historical data...
Loading historical data...
Loading historical data...
Loading historical data...
Loading historical data...
Loading historical data...

TOMORROW-R2 Visibility forecast

Observer location: undefined°, undefined°

Span
Click to sort rows by Start time (UTC) header in descending order
Start Az.
Max El. time (UTC)
Max El. Az.
Max El.
End time (UTC)
End Az.
6 mins2025-05-19 21:33:56.153Z14.551° NNE2025-05-19 21:36:56.153Z74.034° E44.483°2025-05-19 21:39:56.153Z189.454° SSW
|